Change the Weather History Date:

Monday, December 16, 2013

  Actual Average Record
Temperature  
Mean Temperature 80 °F -  
Max Temperature 87 °F 89 °F - ()
Min Temperature 73 °F 74 °F - ()
Cooling Degree Days 15    
Growing Degree Days 30 (Base 50)    
Moisture  
Dew Point 72 °F    
Average Humidity 83    
Maximum Humidity 94    
Minimum Humidity 54    
Precipitation  
Precipitation 0.31 in 0.39 in - ()
Sea Level Pressure  
Sea Level Pressure 29.85 in    
Wind  
Wind Speed 10 mph ()    
Max Wind Speed 21 mph    
Max Gust Speed -    
Visibility 6.4 miles    
Events Rain    
T = Trace of Precipitation, MM = Missing Value Source: Averaged Metar Reports

Daily Weather History Graph

Daily Weather History Graph

Search for Another Location

Airport or City:

Trip Planner

Search our weather history database for the weather conditions in past years. The results will help you decide how hot, cold, wet, or windy it might be!

Date:

Astronomy

Dec. 16, 2013 Rise Set
Actual Time 5:38 AM AEST 6:46 PM AEST
Civil Twilight 5:14 AM AEST 7:10 PM AEST
Nautical Twilight 4:46 AM AEST 7:38 PM AEST
Astronomical Twilight 4:17 AM AEST 8:08 PM AEST
Moon 5:48 PM AEST (12/16) 4:33 AM AEST (12/16)
Length of Visible Light 13h 55m
Length of Day
13h 07m
Waxing Gibbous, 98% of the Moon is Illuminated
Dec 16
Waxing Gibbous
Dec 17
Full
Dec 25
Last Quarter
Jan 1
New
Jan 8
First Quarter

Hourly Weather History & Observations

Time (AEST) Temp. Heat Index Dew Point Humidity Pressure Visibility Wind Dir Wind Speed Gust Speed Precip Events Conditions
12:00 AM 78 °F - 71 °F 73% 29.88 in - South 8.1 mph - -  
12:00 AM 78.8 °F - 71.6 °F 78% 29.86 in 6.2 mi South 8.1 mph - N/A   Scattered Clouds
12:30 AM 77.0 °F - 71.6 °F 83% 29.86 in 6.2 mi South 9.2 mph - N/A   Scattered Clouds
1:00 AM 78 °F - 71 °F 72% 29.86 in - South 10.4 mph - -  
1:00 AM 77.0 °F - 71.6 °F 83% 29.83 in 6.2 mi South 10.4 mph - N/A   Scattered Clouds
1:30 AM 77.0 °F - 71.6 °F 83% 29.83 in 6.2 mi South 10.4 mph - N/A   Partly Cloudy
2:00 AM 77.0 °F - 69.8 °F 78% 29.83 in 6.2 mi South 10.4 mph - N/A   Partly Cloudy
2:30 AM 77.0 °F - 69.8 °F 78% 29.80 in 6.2 mi South 10.4 mph - N/A   Partly Cloudy
3:00 AM 77 °F - 70 °F 74% 29.81 in - South 9.2 mph - -  
3:00 AM 77.0 °F - 69.8 °F 78% 29.80 in 6.2 mi South 9.2 mph - N/A   Partly Cloudy
3:30 AM 77.0 °F - 69.8 °F 78% 29.80 in 6.2 mi South 10.4 mph - N/A   Partly Cloudy
4:00 AM 78 °F - 69 °F 68% 29.82 in - South 10.4 mph - -  
4:00 AM 77.0 °F - 69.8 °F 78% 29.80 in 6.2 mi South 10.4 mph - N/A   Scattered Clouds
4:30 AM 77.0 °F - 69.8 °F 78% 29.80 in 5.6 mi South 9.2 mph - N/A Rain Light Rain Showers
5:00 AM 77.0 °F - 71.6 °F 83% 29.80 in 6.2 mi SE 5.8 mph - N/A   Mostly Cloudy
5:30 AM 77.0 °F - 71.6 °F 83% 29.83 in 6.2 mi SE 5.8 mph - N/A   Mostly Cloudy
6:00 AM 77 °F - 70 °F 74% 29.84 in 9 mi South 8.1 mph - -   Overcast
6:00 AM 77.0 °F - 69.8 °F 78% 29.83 in 6.2 mi South 8.1 mph - N/A   Mostly Cloudy
6:30 AM 75.2 °F - 71.6 °F 89% 29.86 in 3.7 mi SE 10.4 mph - N/A Rain Light Rain Showers
7:00 AM 75 °F - 73 °F 92% 29.87 in - SSE 10.4 mph - -  
7:00 AM 75.2 °F - 73.4 °F 94% 29.86 in 3.1 mi SSE 10.4 mph - N/A Rain Light Rain Showers
7:30 AM 75.2 °F - 73.4 °F 94% 29.86 in 6.2 mi SSE 10.4 mph - N/A   Mostly Cloudy
8:00 AM 75.2 °F - 71.6 °F 89% 29.89 in 6.2 mi South 11.5 mph - N/A   Mostly Cloudy
8:30 AM 77.0 °F - 71.6 °F 83% 29.89 in 6.2 mi South 12.7 mph - N/A   Mostly Cloudy
9:00 AM 79 °F - 73 °F 76% 29.89 in 16 mi South 10.4 mph - -   Partly Cloudy
9:00 AM 78.8 °F - 73.4 °F 83% 29.89 in 6.2 mi South 10.4 mph - N/A   Mostly Cloudy
9:30 AM 80.6 °F 85.4 °F 73.4 °F 79% 29.89 in 6.2 mi SSW 10.4 mph - N/A   Mostly Cloudy
10:00 AM 83 °F - 74 °F 67% 29.89 in - South 10.4 mph - -  
10:00 AM 82.4 °F 88.2 °F 73.4 °F 74% 29.89 in 6.2 mi South 10.4 mph - N/A   Mostly Cloudy
10:30 AM 82.4 °F 87.2 °F 71.6 °F 70% 29.89 in 6.2 mi SSE 13.8 mph - N/A   Mostly Cloudy
10:39 AM 80.6 °F 85.4 °F 73.4 °F 79% 29.89 in 6.2 mi SE 13.8 mph - N/A Rain Light Rain Showers
11:00 AM 84.2 °F 90.9 °F 73.4 °F 70% 29.86 in 6.2 mi SE 17.3 mph - N/A   Scattered Clouds
11:30 AM 82.4 °F 87.2 °F 71.6 °F 70% 29.86 in 6.2 mi SE 19.6 mph - N/A   Scattered Clouds
12:00 PM 87 °F - 73 °F 54% 29.87 in 19 mi SSE 18.4 mph - -   Partly Cloudy
12:00 PM 86.0 °F 93.4 °F 73.4 °F 66% 29.86 in 6.2 mi SSE 18.4 mph - N/A   Scattered Clouds
12:30 PM 82.4 °F 87.2 °F 71.6 °F 70% 29.86 in 6.2 mi South 12.7 mph - N/A Rain Light Rain Showers
1:00 PM 81 °F - 73 °F 70% 29.86 in - South 13.8 mph - -  
1:00 PM 80.6 °F 85.4 °F 73.4 °F 79% 29.86 in 6.2 mi South 13.8 mph - N/A   Scattered Clouds
1:30 PM 84.2 °F 90.9 °F 73.4 °F 70% 29.83 in 6.2 mi South 12.7 mph - N/A   Scattered Clouds
2:00 PM 82.4 °F 88.2 °F 73.4 °F 74% 29.83 in 3.1 mi South 10.4 mph - N/A Rain Light Rain Showers
2:22 PM 78.8 °F - 73.4 °F 83% 29.83 in 6.2 mi South 12.7 mph - N/A   Mostly Cloudy
2:30 PM 78.8 °F - 73.4 °F 83% 29.83 in 6.2 mi South 11.5 mph - N/A   Mostly Cloudy
3:00 PM 78 °F - 74 °F 86% 29.83 in 16 mi South 10.4 mph - - Rain Light Rain Showers
3:00 PM 78.8 °F - 75.2 °F 89% 29.83 in 6.2 mi South 10.4 mph - N/A Rain Light Rain Showers
3:30 PM 78.8 °F - 75.2 °F 89% 29.83 in 6.2 mi South 11.5 mph - N/A Rain Light Rain Showers
4:00 PM 76 °F - 73 °F 87% 29.84 in - South 13.8 mph - -  
4:00 PM 75.2 °F - 73.4 °F 94% 29.83 in 5.0 mi South 13.8 mph - N/A Rain Light Rain Showers
4:30 PM 75.2 °F - 73.4 °F 94% 29.83 in 6.2 mi South 13.8 mph - N/A Rain Light Rain Showers
5:00 PM 77.0 °F - 73.4 °F 89% 29.83 in 6.2 mi South 12.7 mph - N/A Rain Light Rain Showers
5:30 PM 75.2 °F - 73.4 °F 94% 29.83 in 5.0 mi South 13.8 mph - N/A Rain Light Rain Showers
5:35 PM 75.2 °F - 73.4 °F 94% 29.83 in 5.0 mi South 12.7 mph - N/A Rain Light Rain Showers
6:00 PM 75 °F - 73 °F 90% 29.85 in - South 11.5 mph - -   Overcast
6:00 PM 75.2 °F - 73.4 °F 94% 29.83 in 4.3 mi South 11.5 mph - N/A Rain Light Rain Showers
6:11 PM 75.2 °F - 73.4 °F 94% 29.83 in 3.7 mi South 13.8 mph - N/A Rain Rain Showers
6:30 PM 75.2 °F - 73.4 °F 94% 29.86 in 6.2 mi South 13.8 mph - N/A   Mostly Cloudy
7:00 PM 74 °F - 71 °F 88% 29.87 in - South 19.6 mph - -  
7:00 PM 73.4 °F - 71.6 °F 94% 29.86 in 6.2 mi South 19.6 mph - N/A Rain Light Rain Showers
7:23 PM 73.4 °F - 71.6 °F 94% 29.86 in 3.7 mi SSE 20.7 mph - N/A Rain Rain Showers
7:30 PM 73.4 °F - 69.8 °F 88% 29.89 in 3.7 mi South 18.4 mph - N/A Rain Rain Showers
7:45 PM 73.4 °F - 71.6 °F 94% 29.89 in 5.6 mi South 17.3 mph - N/A Rain Light Rain Showers
8:00 PM 73.4 °F - 71.6 °F 94% 29.89 in 6.2 mi South 16.1 mph - N/A   Mostly Cloudy
8:30 PM 73.4 °F - 69.8 °F 88% 29.86 in 6.2 mi SSW 8.1 mph - N/A   Mostly Cloudy
9:00 PM 73 °F - 71 °F 92% 29.89 in - ESE 9.2 mph - -   Overcast
9:00 PM 73.4 °F - 71.6 °F 94% 29.89 in 6.2 mi ESE 9.2 mph - N/A   Mostly Cloudy
9:30 PM 73.4 °F - 71.6 °F 94% 29.89 in 6.2 mi South 6.9 mph - N/A   Mostly Cloudy
10:00 PM 75 °F - 70 °F 80% 29.91 in - South 9.2 mph - -  
10:00 PM 75.2 °F - 69.8 °F 83% 29.89 in 6.2 mi South 9.2 mph - N/A   Mostly Cloudy
10:30 PM 75.2 °F - 71.6 °F 89% 29.89 in 6.2 mi ESE 8.1 mph - N/A   Mostly Cloudy
11:00 PM 73.4 °F - 71.6 °F 94% 29.89 in 6.2 mi SE 9.2 mph - N/A   Mostly Cloudy
11:30 PM 75.2 °F - 71.6 °F 89% 29.89 in 6.2 mi South 6.9 mph - N/A   Mostly Cloudy